VA7RO Saanichton CA current weather conditions

sailwx.info

Wind from 272

Air temperature 10.0° C
Dewpoint 7.6° C

Last reported at 2020-May-26 10:58 UTC.
Time now 2020-May-26 12:00 UTC

Location: N 48°34' W 123°23'.
View on Google Maps.

See reports from other nearby stations

  
Tides and Currents Weather Stations Pressure Air Temp Water Temp Dewpoint Dewpoint Depression Visibility Wind Speed Wind Dir Waves Ship Positions
date/time (UTC)wind fromknots sea level pressurealtimeterstation pressurevisibilityair tempwater tempwave heightnotes
2020-May-26 10:58 272 10.0
2020-May-26 10:43 272 0 gusting 2 10.0
2020-May-26 10:28 272 0 gusting 1 10.6
2020-May-26 10:13 272 10.6
2020-May-26 09:58 272 0 gusting 1 10.6
2020-May-26 09:43 272 1 gusting 1 10.0
2020-May-26 09:28 272 1 gusting 2 10.6
2020-May-26 09:13 272 1 gusting 2 10.6
2020-May-26 08:58 263 1 gusting 1 10.6
2020-May-26 08:43 263 0 gusting 3 10.6
2020-May-26 08:28 266 1 gusting 2 10.6
2020-May-26 08:13 273 1 gusting 4 11.1
2020-May-26 07:58 261 1 gusting 3 11.1
2020-May-26 07:43 183 0 gusting 2 10.6
2020-May-26 07:28 185 1 gusting 2 11.1
2020-May-26 07:13 185 1 gusting 3 11.1
2020-May-26 06:58 257 1 gusting 3 11.7
2020-May-26 06:43 317 0 gusting 1 11.7
2020-May-26 06:28 317 1 gusting 1 11.7
2020-May-26 06:13 250 0 gusting 2 12.2
2020-May-26 05:58 112 12.2
2020-May-26 05:43 054 2 gusting 4 12.8
2020-May-26 05:28 037 2 gusting 2 13.3
2020-May-26 05:13 024 13.3
2020-May-26 04:58 225 13.3
2020-May-26 04:43 228 1 gusting 2 13.9
2020-May-26 04:28 228 1 gusting 2 14.4